Weather History for KNBC - January, 2011

Change the Weather History Date:

Saturday, January 15, 2011

  Actual Average Record
Temperature  
Mean Temperature 40 °F -  
Max Temperature 55 °F 57 °F 84 °F (1950)
Min Temperature 26 °F 37 °F 16 °F (1948)
Degree Days  
Heating Degree Days 24    
Moisture  
Dew Point 23 °F    
Average Humidity 60    
Maximum Humidity 85    
Minimum Humidity 22    
Precipitation  
Precipitation 0.00 in - - ()
Sea Level Pressure  
Sea Level Pressure 30.26 in    
Wind  
Wind Speed 2 mph (WNW)    
Max Wind Speed 9 mph    
Max Gust Speed -    
Visibility 9 miles    
Events      
Averages and records for this station are not official NWS values.
T = Trace of Precipitation, MM = Missing Value Source: NWS Daily Summary

Daily Weather History Graph

Daily Weather History Graph

Search for Another Location

Airport or City:

Trip Planner

Search our weather history database for the weather conditions in past years. The results will help you decide how hot, cold, wet, or windy it might be!

Date:

Astronomy

Jan. 15, 2011 Rise Set
Actual Time 7:24 AM EST 5:39 PM EST
Civil Twilight 6:58 AM EST 6:06 PM EST
Nautical Twilight 6:28 AM EST 6:36 PM EST
Astronomical Twilight 5:58 AM EST 7:06 PM EST
Moon 1:41 PM EST (1/15) 3:23 AM EST (1/15)
Length of Visible Light 11h 08m
Length of Day
10h 15m
Waxing Gibbous, 80% of the Moon is Illuminated
Jan 15
Waxing Gibbous
Jan 19
Full
Jan 26
Last Quarter
Feb 2
New
Feb 11
First Quarter

Hourly Weather History & Observations

Time (EST) Temp. Windchill Dew Point Humidity Pressure Visibility Wind Dir Wind Speed Gust Speed Precip Events Conditions
12:56 AM 27.0 °F - 23.0 °F 85% 30.35 in 6.0 mi Calm Calm - N/A   Clear
1:56 AM 26.1 °F - 21.9 °F 84% 30.34 in 9.0 mi Calm Calm - N/A   Clear
2:56 AM 26.1 °F - 21.9 °F 84% 30.33 in 8.0 mi Calm Calm - N/A   Clear
3:56 AM 27.0 °F - 21.9 °F 81% 30.32 in 8.0 mi Calm Calm - N/A   Clear
4:56 AM 26.1 °F 20.5 °F 21.9 °F 84% 30.32 in 9.0 mi NW 4.6 mph - N/A   Clear
5:56 AM 28.0 °F 22.8 °F 23.0 °F 81% 30.32 in 8.0 mi NNW 4.6 mph - N/A   Clear
6:56 AM 28.0 °F - 24.1 °F 85% 30.32 in 9.0 mi Calm Calm - N/A   Clear
7:56 AM 28.0 °F - 24.1 °F 85% 30.33 in 5.0 mi Calm Calm - N/A   Clear
8:56 AM 35.1 °F 32.2 °F 28.0 °F 76% 30.34 in 10.0 mi North 3.5 mph - N/A   Clear
9:56 AM 41.0 °F - 30.0 °F 65% 30.35 in 10.0 mi Calm Calm - N/A   Clear
10:56 AM 46.9 °F - 25.0 °F 42% 30.33 in 10.0 mi NW 3.5 mph - N/A   Clear
11:56 AM 50.0 °F - 19.9 °F 31% 30.30 in 10.0 mi NW 8.1 mph - N/A   Clear
12:56 PM 51.1 °F - 19.9 °F 29% 30.25 in 10.0 mi Variable 3.5 mph - N/A   Clear
1:56 PM 54.0 °F - 19.0 °F 25% 30.22 in 10.0 mi Variable 6.9 mph - N/A   Clear
2:56 PM 54.0 °F - 16.0 °F 22% 30.21 in 10.0 mi West 9.2 mph - N/A   Clear
3:56 PM 55.0 °F - 17.1 °F 23% 30.19 in 10.0 mi West 5.8 mph - N/A   Clear
4:56 PM 53.1 °F - 16.0 °F 23% 30.19 in 10.0 mi West 5.8 mph - N/A   Clear
5:56 PM 45.0 °F - 19.0 °F 36% 30.18 in 10.0 mi Calm Calm - N/A   Clear
6:56 PM 39.9 °F 35.8 °F 23.0 °F 51% 30.19 in 10.0 mi SSW 5.8 mph - N/A   Clear
7:56 PM 39.9 °F - 30.0 °F 68% 30.19 in 10.0 mi Calm Calm - N/A   Clear
8:56 PM 36.0 °F 32.1 °F 27.0 °F 70% 30.19 in 10.0 mi SSW 4.6 mph - N/A   Clear
9:56 PM 34.0 °F - 25.0 °F 70% 30.21 in 10.0 mi Calm Calm - N/A   Clear
10:56 PM 34.0 °F 31.0 °F 27.0 °F 75% 30.20 in 9.0 mi SE 3.5 mph - N/A   Clear
11:56 PM 33.1 °F - 26.1 °F 75% 30.19 in 10.0 mi Calm Calm - N/A   Clear